Tiempo cada hora Washington

Hoy, 23 Octubre, Viernes

Tiempo Temperatura Precipitaciones Viento Presión Humedad
00:00 +20°C° 0 mm 1 mps 759 mmHg 93%
01:00 +20°C° 0 mm 1 mps 759 mmHg 93%
02:00 +19°C° 0 mm 1 mps 758 mmHg 93%
03:00 +19°C° 0 mm 1 mps 758 mmHg 94%
04:00 +18°C° 0 mm 1 mps 758 mmHg 94%
05:00 +18°C° 0 mm 1 mps 758 mmHg 94%
06:00 +18°C° 0 mm 1 mps 759 mmHg 94%
07:00 +18°C° 0 mm 1 mps 759 mmHg 94%
08:00 +19°C° 0 mm 2 mps 756 mmHg 80%
09:00 +20°C° 0 mm 2 mps 757 mmHg 77%
10:00 +23°C° 0 mm 2 mps 759 mmHg 73%
11:00 +24°C° 0 mm 2 mps 759 mmHg 68%
12:00 +25°C° 0 mm 3 mps 758 mmHg 63%
13:00 +26°C° 0 mm 3 mps 757 mmHg 58%
14:00 +26°C° 0 mm 3 mps 757 mmHg 60%
15:00 +25°C° 0 mm 3 mps 756 mmHg 63%
16:00 +25°C° 0 mm 2 mps 756 mmHg 65%
17:00 +22°C° 0 mm 3 mps 756 mmHg 70%
18:00 +21°C° 0 mm 3 mps 756 mmHg 75%
19:00 +19°C° 0 mm 3 mps 756 mmHg 80%
20:00 +18°C° 0 mm 3 mps 756 mmHg 83%
21:00 +18°C° 0 mm 2 mps 756 mmHg 86%
22:00 +17°C° 0 mm 2 mps 756 mmHg 90%
23:00 +17°C° 0 mm 2 mps 755 mmHg 90%

Mañana, 24 Octubre, Sábado

Tiempo Temperatura Precipitaciones Viento Presión Humedad
00:00 +17°C° 0 mm 2 mps 755 mmHg 91%
01:00 +16°C° 0 mm 2 mps 754 mmHg 92%
02:00 +16°C° 0 mm 2 mps 754 mmHg 91%
03:00 +16°C° 0 mm 2 mps 754 mmHg 91%
04:00 +16°C° 0 mm 2 mps 754 mmHg 90%
05:00 +16°C° 0 mm 1 mps 754 mmHg 89%
06:00 +16°C° 0 mm 1 mps 754 mmHg 88%
07:00 +16°C° 0 mm 1 mps 754 mmHg 87%
08:00 +19°C° 0 mm 1 mps 754 mmHg 81%
09:00 +22°C° 0 mm 1 mps 754 mmHg 75%
10:00 +24°C° 0 mm 1 mps 754 mmHg 68%
11:00 +24°C° 0 mm 2 mps 754 mmHg 67%
12:00 +25°C° 0 mm 2 mps 754 mmHg 65%
13:00 +25°C° 0 mm 3 mps 753 mmHg 63%
14:00 +24°C° 0 mm 3 mps 753 mmHg 64%
15:00 +22°C° 0 mm 4 mps 753 mmHg 66%
16:00 +21°C° 0 mm 4 mps 753 mmHg 67%
17:00 +19°C° 0 mm 4 mps 754 mmHg 68%
18:00 +17°C° 0 mm 4 mps 755 mmHg 68%
19:00 +14°C° 0 mm 4 mps 755 mmHg 68%
20:00 +14°C° 0 mm 4 mps 756 mmHg 66%
21:00 +13°C° 0 mm 4 mps 757 mmHg 64%
22:00 +13°C° 0 mm 4 mps 757 mmHg 61%
23:00 +12°C° 0 mm 4 mps 757 mmHg 61%

Pasado mañana, 25 Octubre, Domingo

Tiempo Temperatura Precipitaciones Viento Presión Humedad
00:00 +11°C° 0 mm 4 mps 758 mmHg 60%
01:00 +10°C° 0 mm 4 mps 758 mmHg 60%
02:00 +10°C° 0 mm 4 mps 758 mmHg 59%
03:00 +8°C° 0 mm 4 mps 759 mmHg 58%
04:00 +8°C° 0 mm 4 mps 759 mmHg 58%
05:00 +9°C° 0 mm 3 mps 759 mmHg 57%
06:00 +8°C° 0 mm 3 mps 760 mmHg 57%
07:00 +8°C° 0 mm 3 mps 760 mmHg 57%
08:00 +8°C° 0 mm 3 mps 760 mmHg 59%
09:00 +8°C° 0 mm 3 mps 761 mmHg 60%
10:00 +8°C° 0 mm 3 mps 761 mmHg 62%
11:00 +9°C° 0 mm 2 mps 761 mmHg 62%
12:00 +9°C° 0 mm 2 mps 761 mmHg 62%
13:00 +10°C° 0 mm 2 mps 761 mmHg 61%
14:00 +10°C° 0 mm 2 mps 760 mmHg 61%
15:00 +10°C° 0 mm 2 mps 760 mmHg 60%
16:00 +10°C° 0 mm 2 mps 760 mmHg 60%
17:00 +10°C° 0 mm 2 mps 760 mmHg 61%
18:00 +11°C° 0 mm 1 mps 761 mmHg 62%
19:00 +11°C° 0 mm 1 mps 761 mmHg 62%
20:00 +11°C° 0 mm 1 mps 761 mmHg 65%
21:00 +11°C° 0 mm 1 mps 761 mmHg 68%
22:00 +10°C° 0 mm 2 mps 761 mmHg 72%
23:00 +12°C° 0 mm 1 mps 761 mmHg 74%

, 26 Octubre, Lunes

Tiempo Temperatura Precipitaciones Viento Presión Humedad
00:00 +12°C° 0 mm 1 mps 760 mmHg 76%
01:00 +12°C° 0 mm 1 mps 760 mmHg 78%
02:00 +12°C° 0 mm 1 mps 760 mmHg 79%
03:00 +11°C° 0 mm 0 mps 759 mmHg 80%
04:00 +11°C° 0 mm 0 mps 759 mmHg 81%
05:00 +12°C° 0 mm 1 mps 759 mmHg 84%
06:00 +12°C° 0 mm 1 mps 759 mmHg 87%
07:00 +11°C° 0 mm 1 mps 759 mmHg 90%
08:00 +13°C° 0 mm 1 mps 759 mmHg 85%
09:00 +15°C° 0 mm 2 mps 759 mmHg 79%
10:00 +17°C° 0 mm 2 mps 759 mmHg 74%
11:00 +19°C° 0 mm 3 mps 758 mmHg 71%
12:00 +21°C° 0 mm 3 mps 757 mmHg 69%
13:00 +23°C° 0 mm 4 mps 757 mmHg 66%
14:00 +23°C° 0 mm 4 mps 756 mmHg 68%
15:00 +23°C° 0 mm 4 mps 756 mmHg 69%
16:00 +22°C° 0 mm 4 mps 756 mmHg 71%
17:00 +21°C° 0 mm 4 mps 756 mmHg 76%
18:00 +20°C° 0 mm 4 mps 756 mmHg 81%
19:00 +19°C° 0 mm 4 mps 756 mmHg 86%
20:00 +19°C° 0 mm 4 mps 756 mmHg 85%
21:00 +19°C° 0 mm 4 mps 756 mmHg 85%
22:00 +19°C° 0 mm 4 mps 756 mmHg 84%
23:00 +19°C° 0 mm 4 mps 755 mmHg 85%

26 Octubre, Lunes

Tiempo Temperatura Precipitaciones Viento Presión Humedad
00:00 +12°C° 0 mm 1 mps 760 mmHg 76%
01:00 +12°C° 0 mm 1 mps 760 mmHg 78%
02:00 +12°C° 0 mm 1 mps 760 mmHg 79%
03:00 +11°C° 0 mm 0 mps 759 mmHg 80%
04:00 +11°C° 0 mm 0 mps 759 mmHg 81%
05:00 +12°C° 0 mm 1 mps 759 mmHg 84%
06:00 +12°C° 0 mm 1 mps 759 mmHg 87%
07:00 +11°C° 0 mm 1 mps 759 mmHg 90%
08:00 +13°C° 0 mm 1 mps 759 mmHg 85%
09:00 +15°C° 0 mm 2 mps 759 mmHg 79%
10:00 +17°C° 0 mm 2 mps 759 mmHg 74%
11:00 +19°C° 0 mm 3 mps 758 mmHg 71%
12:00 +21°C° 0 mm 3 mps 757 mmHg 69%
13:00 +23°C° 0 mm 4 mps 757 mmHg 66%
14:00 +23°C° 0 mm 4 mps 756 mmHg 68%
15:00 +23°C° 0 mm 4 mps 756 mmHg 69%
16:00 +22°C° 0 mm 4 mps 756 mmHg 71%
17:00 +21°C° 0 mm 4 mps 756 mmHg 76%
18:00 +20°C° 0 mm 4 mps 756 mmHg 81%
19:00 +19°C° 0 mm 4 mps 756 mmHg 86%
20:00 +19°C° 0 mm 4 mps 756 mmHg 85%
21:00 +19°C° 0 mm 4 mps 756 mmHg 85%
22:00 +19°C° 0 mm 4 mps 756 mmHg 84%
23:00 +19°C° 0 mm 4 mps 755 mmHg 85%

27 Octubre, Martes

Tiempo Temperatura Precipitaciones Viento Presión Humedad
00:00 +19°C° 0 mm 4 mps 755 mmHg 86%
01:00 +19°C° 0 mm 4 mps 755 mmHg 86%
02:00 +18°C° 0 mm 4 mps 755 mmHg 88%
03:00 +18°C° 0 mm 3 mps 754 mmHg 89%
04:00 +18°C° 0 mm 3 mps 754 mmHg 91%
05:00 +17°C° 0 mm 2 mps 754 mmHg 92%
06:00 +17°C° 0 mm 2 mps 754 mmHg 93%
07:00 +17°C° 0 mm 2 mps 755 mmHg 94%
08:00 +19°C° 0 mm 2 mps 755 mmHg 87%
09:00 +20°C° 0 mm 2 mps 755 mmHg 81%
10:00 +23°C° 0 mm 2 mps 755 mmHg 74%
11:00 +24°C° 0 mm 2 mps 755 mmHg 70%
12:00 +26°C° 0 mm 2 mps 755 mmHg 66%
13:00 +27°C° 0 mm 2 mps 754 mmHg 61%
14:00 +27°C° 0.1 mm 2 mps 754 mmHg 65%
15:00 +26°C° 0.1 mm 2 mps 754 mmHg 68%
16:00 +26°C° 0.1 mm 2 mps 753 mmHg 71%
17:00 +24°C° 0.7 mm 2 mps 753 mmHg 77%
18:00 +23°C° 0.7 mm 2 mps 753 mmHg 83%
19:00 +21°C° 0.7 mm 2 mps 754 mmHg 89%
20:00 +20°C° 0.8 mm 2 mps 753 mmHg 90%
21:00 +20°C° 0.8 mm 2 mps 753 mmHg 92%
22:00 +20°C° 0.8 mm 1 mps 753 mmHg 94%
23:00 +20°C° 0.5 mm 1 mps 753 mmHg 94%

28 Octubre, Miércoles

Tiempo Temperatura Precipitaciones Viento Presión Humedad
00:00 +20°C° 0.5 mm 1 mps 753 mmHg 95%
01:00 +20°C° 0.5 mm 1 mps 752 mmHg 95%
02:00 +20°C° 0.1 mm 1 mps 752 mmHg 95%
03:00 +20°C° 0.1 mm 1 mps 752 mmHg 96%
04:00 +19°C° 0.1 mm 1 mps 752 mmHg 96%
05:00 +19°C° 0 mm 1 mps 752 mmHg 96%
06:00 +19°C° 0 mm 1 mps 752 mmHg 96%
07:00 +17°C° 0 mm 0 mps 752 mmHg 96%
08:00 +18°C° 0 mm 0 mps 752 mmHg 92%
09:00 +20°C° 0 mm 0 mps 752 mmHg 88%
10:00 +21°C° 0 mm 0 mps 752 mmHg 84%
11:00 +21°C° 0.1 mm 0 mps 751 mmHg 85%
12:00 +21°C° 0.1 mm 0 mps 751 mmHg 85%
13:00 +21°C° 0.1 mm 0 mps 750 mmHg 85%
14:00 +22°C° 1.5 mm 1 mps 750 mmHg 89%
15:00 +22°C° 1.5 mm 1 mps 749 mmHg 92%
16:00 +21°C° 1.5 mm 1 mps 749 mmHg 96%
17:00 +21°C° 0.3 mm 1 mps 749 mmHg 96%
18:00 +21°C° 0.3 mm 1 mps 749 mmHg 95%
19:00 +21°C° 0.3 mm 1 mps 749 mmHg 95%
20:00 +21°C° 0.1 mm 1 mps 749 mmHg 93%
21:00 +20°C° 0.1 mm 2 mps 750 mmHg 91%
22:00 +19°C° 0.1 mm 2 mps 750 mmHg 89%
23:00 +18°C° 0 mm 3 mps 750 mmHg 87%
Mostrar más